Year,Month,Day,Hour,Minute,Value (Times are PST for windgust in km/hr)
2021,03,23,00,06,1.60
2021,03,23,00,07,4.80
2021,03,23,00,08,1.60
2021,03,23,00,09,3.20
2021,03,23,00,10,3.20
2021,03,23,00,11,1.60
2021,03,23,00,12,1.60
2021,03,23,00,15,1.60
2021,03,23,00,19,1.60
2021,03,23,00,20,1.60
2021,03,23,00,21,1.60
2021,03,23,00,26,1.60
2021,03,23,00,37,1.60
2021,03,23,00,38,1.60
2021,03,23,00,39,3.20
2021,03,23,00,40,3.20
2021,03,23,00,41,3.20
2021,03,23,00,42,3.20
2021,03,23,00,43,3.20
2021,03,23,00,51,1.60
2021,03,23,01,14,3.20
2021,03,23,01,15,3.20
2021,03,23,01,16,1.60
2021,03,23,01,17,3.20
2021,03,23,01,18,1.60
2021,03,23,01,20,1.60
2021,03,23,01,21,1.60
2021,03,23,01,45,1.60
2021,03,23,01,46,1.60
2021,03,23,01,48,4.80
2021,03,23,01,49,4.80
2021,03,23,01,50,4.80
2021,03,23,01,51,3.20
2021,03,23,01,52,4.80
2021,03,23,01,53,4.80
2021,03,23,01,54,6.40
2021,03,23,01,55,6.40
2021,03,23,01,56,6.40
2021,03,23,01,57,3.20
2021,03,23,01,58,4.80
2021,03,23,01,59,4.80
2021,03,23,02,00,3.20
2021,03,23,02,01,4.80
2021,03,23,02,02,3.20
2021,03,23,02,03,4.80
2021,03,23,02,04,4.80
2021,03,23,02,05,3.20
2021,03,23,02,06,3.20
2021,03,23,02,07,3.20
2021,03,23,02,08,1.60
2021,03,23,02,09,4.80
2021,03,23,02,10,6.40
2021,03,23,02,11,4.80
2021,03,23,02,12,3.20
2021,03,23,02,13,3.20
2021,03,23,02,14,3.20
2021,03,23,02,15,6.40
2021,03,23,02,16,4.80
2021,03,23,02,17,6.40
2021,03,23,02,18,3.20
2021,03,23,02,19,3.20
2021,03,23,02,20,3.20
2021,03,23,02,21,3.20
2021,03,23,02,23,3.20
2021,03,23,02,24,1.60
2021,03,23,02,25,3.20
2021,03,23,02,26,3.20
2021,03,23,02,27,3.20
2021,03,23,02,28,3.20
2021,03,23,02,29,3.20
2021,03,23,02,30,6.40
2021,03,23,02,31,6.40
2021,03,23,02,32,4.80
2021,03,23,02,33,6.40
2021,03,23,02,34,3.20
2021,03,23,02,35,6.40
2021,03,23,02,36,4.80
2021,03,23,02,37,4.80
2021,03,23,02,38,4.80
2021,03,23,02,39,4.80
2021,03,23,02,40,4.80
2021,03,23,02,41,4.80
2021,03,23,02,42,4.80
2021,03,23,02,43,3.20
2021,03,23,02,44,3.20
2021,03,23,02,45,4.80
2021,03,23,02,46,4.80
2021,03,23,02,47,3.20
2021,03,23,02,48,3.20
2021,03,23,02,49,1.60
2021,03,23,02,50,1.60
2021,03,23,02,51,3.20
2021,03,23,02,52,4.80
2021,03,23,02,53,4.80
2021,03,23,02,54,3.20
2021,03,23,02,55,3.20
2021,03,23,02,56,1.60
2021,03,23,02,57,3.20
2021,03,23,02,58,3.20
2021,03,23,02,59,3.20
2021,03,23,03,00,3.20
2021,03,23,03,01,3.20
2021,03,23,03,02,6.40
2021,03,23,03,03,4.80
2021,03,23,03,04,1.60
2021,03,23,03,05,3.20
2021,03,23,03,06,1.60
2021,03,23,03,07,1.60
2021,03,23,03,08,3.20
2021,03,23,03,09,1.60
2021,03,23,03,10,3.20
2021,03,23,03,11,1.60
2021,03,23,03,12,3.20
2021,03,23,03,13,1.60
2021,03,23,03,14,1.60
2021,03,23,03,16,1.60
2021,03,23,03,17,3.20
2021,03,23,03,18,3.20
2021,03,23,03,19,3.20
2021,03,23,03,20,3.20
2021,03,23,03,21,3.20
2021,03,23,03,22,3.20
2021,03,23,03,23,3.20
2021,03,23,03,24,3.20
2021,03,23,03,25,1.60
2021,03,23,03,26,1.60
2021,03,23,03,27,1.60
2021,03,23,03,28,4.80
2021,03,23,03,29,4.80
2021,03,23,03,30,3.20
2021,03,23,03,31,3.20
2021,03,23,03,32,4.80
2021,03,23,03,33,3.20
2021,03,23,03,34,1.60
2021,03,23,03,35,3.20
2021,03,23,03,36,3.20
2021,03,23,03,37,3.20
2021,03,23,03,38,1.60
2021,03,23,03,39,3.20
2021,03,23,03,40,3.20
2021,03,23,03,41,1.60
2021,03,23,03,42,1.60
2021,03,23,03,43,1.60
2021,03,23,03,44,3.20
2021,03,23,03,45,3.20
2021,03,23,03,46,3.20
2021,03,23,03,47,3.20
2021,03,23,03,48,1.60
2021,03,23,03,49,1.60
2021,03,23,04,11,1.60
2021,03,23,04,15,1.60
2021,03,23,04,16,1.60
2021,03,23,04,18,1.60
2021,03,23,04,21,1.60
2021,03,23,04,32,1.60
2021,03,23,04,33,3.20
2021,03,23,04,34,3.20
2021,03,23,04,35,3.20
2021,03,23,04,36,3.20
2021,03,23,04,37,4.80
2021,03,23,04,38,3.20
2021,03,23,04,39,3.20
2021,03,23,04,40,3.20
2021,03,23,04,41,4.80
2021,03,23,04,42,6.40
2021,03,23,04,43,6.40
2021,03,23,04,44,4.80
2021,03,23,04,45,4.80
2021,03,23,04,46,3.20
2021,03,23,04,47,3.20
2021,03,23,04,48,3.20
2021,03,23,04,49,3.20
2021,03,23,04,50,3.20
2021,03,23,04,51,3.20
2021,03,23,04,52,3.20
2021,03,23,04,54,1.60
2021,03,23,04,55,3.20
2021,03,23,04,56,3.20
2021,03,23,04,57,1.60
2021,03,23,04,58,3.20
2021,03,23,04,59,4.80
2021,03,23,05,00,1.60
2021,03,23,05,01,1.60
2021,03,23,05,02,3.20
2021,03,23,05,03,4.80
2021,03,23,05,04,3.20
2021,03,23,05,05,3.20
2021,03,23,05,06,3.20
2021,03,23,05,07,1.60
2021,03,23,05,08,4.80
2021,03,23,05,09,4.80
2021,03,23,05,10,3.20
2021,03,23,05,11,3.20
2021,03,23,05,12,3.20
2021,03,23,05,13,3.20
2021,03,23,05,14,1.60
2021,03,23,05,15,1.60
2021,03,23,05,16,3.20
2021,03,23,05,17,3.20
2021,03,23,05,18,3.20
2021,03,23,05,19,4.80
2021,03,23,05,20,3.20
2021,03,23,05,21,6.40
2021,03,23,05,22,3.20
2021,03,23,05,23,3.20
2021,03,23,05,24,1.60
2021,03,23,05,25,1.60
2021,03,23,05,26,1.60
2021,03,23,05,27,1.60
2021,03,23,05,28,3.20
2021,03,23,05,29,1.60
2021,03,23,05,31,1.60
2021,03,23,05,32,1.60
2021,03,23,05,33,3.20
2021,03,23,05,34,1.60
2021,03,23,05,35,1.60
2021,03,23,05,36,3.20
2021,03,23,05,37,1.60
2021,03,23,05,39,3.20
2021,03,23,05,40,1.60
2021,03,23,05,42,1.60
2021,03,23,05,43,1.60
2021,03,23,05,47,1.60
2021,03,23,05,52,1.60
2021,03,23,05,53,4.80
2021,03,23,05,54,3.20
2021,03,23,05,56,3.20
2021,03,23,05,57,3.20
2021,03,23,05,58,1.60
2021,03,23,05,59,3.20
2021,03,23,06,00,1.60
2021,03,23,06,01,1.60
2021,03,23,06,02,3.20
2021,03,23,06,03,1.60
2021,03,23,06,04,3.20
2021,03,23,06,05,3.20
2021,03,23,06,06,4.80
2021,03,23,06,07,3.20
2021,03,23,06,08,1.60
2021,03,23,06,10,1.60
2021,03,23,06,11,1.60
2021,03,23,06,12,1.60
2021,03,23,06,13,3.20
2021,03,23,06,14,1.60
2021,03,23,06,15,1.60
2021,03,23,06,17,4.80
2021,03,23,06,20,1.60
2021,03,23,06,21,1.60
2021,03,23,06,22,3.20
2021,03,23,06,23,3.20
2021,03,23,06,24,3.20
2021,03,23,06,25,1.60
2021,03,23,06,26,1.60
2021,03,23,06,27,1.60
2021,03,23,06,34,1.60
2021,03,23,06,37,3.20
2021,03,23,06,38,1.60
2021,03,23,06,43,1.60
2021,03,23,06,44,1.60
2021,03,23,06,45,1.60
2021,03,23,06,53,1.60
2021,03,23,06,54,1.60
2021,03,23,06,55,3.20
2021,03,23,06,56,1.60
2021,03,23,06,57,1.60
2021,03,23,07,00,1.60
2021,03,23,07,04,3.20
2021,03,23,07,05,1.60
2021,03,23,07,06,1.60
2021,03,23,07,08,3.20
2021,03,23,07,09,1.60
2021,03,23,07,10,1.60
2021,03,23,07,11,4.80
2021,03,23,07,12,4.80
2021,03,23,07,13,1.60
2021,03,23,07,14,1.60
2021,03,23,07,16,1.60
2021,03,23,07,17,1.60
2021,03,23,07,18,3.20
2021,03,23,07,19,3.20
2021,03,23,07,20,3.20
2021,03,23,07,21,1.60
2021,03,23,07,22,1.60
2021,03,23,07,23,1.60
2021,03,23,07,24,3.20
2021,03,23,07,25,3.20
2021,03,23,07,26,3.20
2021,03,23,07,27,3.20
2021,03,23,07,28,3.20
2021,03,23,07,29,3.20
2021,03,23,07,30,3.20
2021,03,23,07,31,3.20
2021,03,23,07,32,3.20
2021,03,23,07,33,3.20
2021,03,23,07,34,3.20
2021,03,23,07,35,1.60
2021,03,23,07,36,1.60
2021,03,23,07,37,3.20
2021,03,23,07,38,3.20
2021,03,23,07,39,1.60
2021,03,23,07,43,1.60
2021,03,23,07,46,1.60
2021,03,23,07,47,1.60
2021,03,23,08,03,1.60
2021,03,23,08,04,1.60
2021,03,23,08,09,1.60
2021,03,23,08,10,1.60
2021,03,23,08,17,1.60
2021,03,23,08,26,1.60
2021,03,23,08,27,3.20
2021,03,23,08,28,1.60
2021,03,23,08,29,3.20
2021,03,23,08,30,3.20
2021,03,23,08,31,6.40
2021,03,23,08,32,4.80
2021,03,23,08,33,3.20
2021,03,23,08,34,6.40
2021,03,23,08,35,4.80
2021,03,23,08,36,3.20
2021,03,23,08,37,6.40
2021,03,23,08,38,4.80
2021,03,23,08,39,4.80
2021,03,23,08,40,6.40
2021,03,23,08,41,4.80
2021,03,23,08,42,4.80
2021,03,23,08,43,4.80
2021,03,23,08,44,4.80
2021,03,23,08,45,4.80
2021,03,23,08,46,6.40
2021,03,23,08,47,6.40
2021,03,23,08,48,4.80
2021,03,23,08,49,4.80
2021,03,23,08,50,3.20
2021,03,23,08,51,6.40
2021,03,23,08,52,1.60
2021,03,23,08,53,4.80
2021,03,23,08,54,3.20
2021,03,23,08,55,3.20
2021,03,23,08,56,3.20
2021,03,23,08,57,4.80
2021,03,23,08,58,4.80
2021,03,23,08,59,3.20
2021,03,23,09,00,3.20
2021,03,23,09,01,6.40
2021,03,23,09,02,4.80
2021,03,23,09,03,1.60
2021,03,23,09,04,3.20
2021,03,23,09,05,3.20
2021,03,23,09,06,4.80
2021,03,23,09,07,3.20
2021,03,23,09,08,4.80
2021,03,23,09,09,3.20
2021,03,23,09,10,3.20
2021,03,23,09,11,6.40
2021,03,23,09,12,6.40
2021,03,23,09,13,3.20
2021,03,23,09,14,4.80
2021,03,23,09,15,3.20
2021,03,23,09,16,1.60
2021,03,23,09,18,1.60
2021,03,23,09,19,1.60
2021,03,23,09,20,1.60
2021,03,23,09,22,1.60
2021,03,23,09,23,3.20
2021,03,23,09,24,1.60
2021,03,23,09,25,3.20
2021,03,23,09,26,3.20
2021,03,23,09,27,3.20
2021,03,23,09,28,1.60
2021,03,23,09,29,1.60
2021,03,23,09,30,4.80
2021,03,23,09,31,3.20
2021,03,23,09,32,3.20
2021,03,23,09,33,3.20
2021,03,23,09,34,1.60
2021,03,23,09,35,1.60
2021,03,23,09,36,3.20
2021,03,23,09,37,3.20
2021,03,23,09,38,3.20
2021,03,23,09,39,3.20
2021,03,23,09,40,3.20
2021,03,23,09,41,3.20
2021,03,23,09,42,1.60
2021,03,23,09,54,1.60
2021,03,23,09,55,1.60
2021,03,23,09,56,1.60
2021,03,23,09,57,9.60
2021,03,23,09,58,6.40
2021,03,23,09,59,4.80
2021,03,23,10,00,3.20
2021,03,23,10,01,6.40
2021,03,23,10,02,4.80
2021,03,23,10,03,4.80
2021,03,23,10,05,1.60
2021,03,23,10,06,1.60
2021,03,23,10,07,6.40
2021,03,23,10,08,6.40
2021,03,23,10,09,6.40
2021,03,23,10,10,4.80
2021,03,23,10,11,4.80
2021,03,23,10,12,3.20
2021,03,23,10,13,3.20
2021,03,23,10,14,3.20
2021,03,23,10,15,6.40
2021,03,23,10,16,6.40
2021,03,23,10,17,6.40
2021,03,23,10,18,3.20
2021,03,23,10,19,3.20
2021,03,23,10,20,1.60
2021,03,23,10,21,1.60
2021,03,23,10,22,1.60
2021,03,23,10,23,4.80
2021,03,23,10,24,4.80
2021,03,23,10,25,1.60
2021,03,23,10,27,3.20
2021,03,23,10,28,4.80
2021,03,23,10,29,3.20
2021,03,23,10,30,3.20
2021,03,23,10,31,4.80
2021,03,23,10,32,6.40
2021,03,23,10,33,6.40
2021,03,23,10,34,1.60
2021,03,23,10,36,1.60
2021,03,23,10,37,9.60
2021,03,23,10,38,4.80
2021,03,23,10,39,1.60
2021,03,23,10,41,1.60
2021,03,23,10,43,1.60
2021,03,23,10,44,3.20
2021,03,23,10,45,6.40
2021,03,23,10,46,4.80
2021,03,23,10,47,6.40
2021,03,23,10,48,9.60
2021,03,23,10,49,6.40
2021,03,23,10,50,6.40
2021,03,23,10,51,9.60
2021,03,23,10,52,11.30
2021,03,23,10,53,9.60
2021,03,23,10,54,6.40
2021,03,23,10,55,4.80
2021,03,23,10,56,6.40
2021,03,23,10,57,6.40
2021,03,23,10,58,6.40
2021,03,23,10,59,6.40
2021,03,23,11,00,4.80
2021,03,23,11,01,9.60
2021,03,23,11,02,12.90
2021,03,23,11,03,6.40
2021,03,23,11,04,9.60
2021,03,23,11,05,6.40
2021,03,23,11,06,3.20
2021,03,23,11,07,3.20
2021,03,23,11,08,3.20
2021,03,23,11,09,1.60
2021,03,23,11,10,3.20
2021,03,23,11,11,3.20
2021,03,23,11,12,1.60
2021,03,23,11,13,3.20
2021,03,23,11,14,3.20
2021,03,23,11,15,3.20
2021,03,23,11,16,4.80
2021,03,23,11,17,3.20
2021,03,23,11,18,6.40
2021,03,23,11,19,6.40
2021,03,23,11,20,4.80
2021,03,23,11,21,6.40
2021,03,23,11,22,4.80
2021,03,23,11,23,4.80
2021,03,23,11,24,3.20
2021,03,23,11,25,6.40
2021,03,23,11,26,9.60
2021,03,23,11,27,11.30
2021,03,23,11,28,11.30
2021,03,23,11,29,14.50
2021,03,23,11,30,16.10
2021,03,23,11,31,16.10
2021,03,23,11,32,6.40
2021,03,23,11,33,6.40
2021,03,23,11,34,11.30
2021,03,23,11,35,9.60
2021,03,23,11,36,11.30
2021,03,23,11,37,12.90
2021,03,23,11,38,9.60
2021,03,23,11,39,8.10
2021,03,23,11,40,9.60
2021,03,23,11,41,12.90
2021,03,23,11,42,9.60
2021,03,23,11,43,9.60
2021,03,23,11,44,3.20
2021,03,23,11,45,11.30
2021,03,23,11,46,6.40
2021,03,23,11,47,4.80
2021,03,23,11,48,3.20
2021,03,23,11,49,4.80
2021,03,23,11,50,4.80
2021,03,23,11,51,3.20
2021,03,23,11,53,6.40
2021,03,23,11,54,6.40
2021,03,23,11,55,6.40
2021,03,23,11,56,6.40
2021,03,23,11,57,8.10
2021,03,23,11,58,9.60
2021,03,23,11,59,8.10
2021,03,23,12,00,6.40
2021,03,23,12,01,9.60
2021,03,23,12,02,9.60
2021,03,23,12,03,4.80
2021,03,23,12,04,6.40
2021,03,23,12,05,4.80
2021,03,23,12,06,3.20
2021,03,23,12,07,4.80
2021,03,23,12,08,3.20
2021,03,23,12,09,3.20
2021,03,23,12,10,3.20
2021,03,23,12,11,3.20
2021,03,23,12,12,3.20
2021,03,23,12,13,1.60
2021,03,23,12,14,4.80
2021,03,23,12,15,6.40
2021,03,23,12,16,4.80
2021,03,23,12,17,4.80
2021,03,23,12,18,1.60
2021,03,23,12,19,1.60
2021,03,23,12,20,6.40
2021,03,23,12,21,11.30
2021,03,23,12,22,11.30
2021,03,23,12,23,6.40
2021,03,23,12,24,6.40
2021,03,23,12,25,4.80
2021,03,23,12,26,4.80
2021,03,23,12,27,4.80
2021,03,23,12,28,3.20
2021,03,23,12,29,6.40
2021,03,23,12,30,4.80
2021,03,23,12,31,4.80
2021,03,23,12,32,4.80
2021,03,23,12,33,6.40
2021,03,23,12,34,3.20
2021,03,23,12,35,6.40
2021,03,23,12,36,3.20
2021,03,23,12,37,3.20
2021,03,23,12,38,3.20
2021,03,23,12,39,3.20
2021,03,23,12,40,3.20
2021,03,23,12,41,9.60
2021,03,23,12,42,4.80
2021,03,23,12,43,4.80
2021,03,23,12,44,1.60
2021,03,23,12,45,4.80
2021,03,23,12,46,6.40
2021,03,23,12,47,3.20
2021,03,23,12,48,4.80
2021,03,23,12,49,3.20
2021,03,23,12,50,3.20
2021,03,23,12,51,4.80
2021,03,23,12,52,4.80
2021,03,23,12,53,6.40
2021,03,23,12,54,4.80
2021,03,23,12,55,4.80
2021,03,23,12,56,8.10
2021,03,23,12,57,6.40
2021,03,23,12,58,4.80
2021,03,23,12,59,6.40
2021,03,23,13,00,4.80
2021,03,23,13,01,4.80
2021,03,23,13,02,4.80
2021,03,23,13,03,3.20
2021,03,23,13,04,6.40
2021,03,23,13,05,6.40
2021,03,23,13,06,4.80
2021,03,23,13,07,6.40
2021,03,23,13,08,4.80
2021,03,23,13,09,4.80
2021,03,23,13,10,11.30
2021,03,23,13,11,6.40
2021,03,23,13,12,4.80
2021,03,23,13,13,4.80
2021,03,23,13,14,4.80
2021,03,23,13,15,4.80
2021,03,23,13,16,4.80
2021,03,23,13,17,4.80
2021,03,23,13,18,4.80
2021,03,23,13,19,4.80
2021,03,23,13,20,4.80
2021,03,23,13,21,1.60
2021,03,23,13,22,3.20
2021,03,23,13,23,4.80
2021,03,23,13,24,3.20
2021,03,23,13,25,3.20
2021,03,23,13,26,3.20
2021,03,23,13,27,1.60
2021,03,23,13,28,1.60
2021,03,23,13,29,1.60
2021,03,23,13,30,3.20
2021,03,23,13,31,3.20
2021,03,23,13,32,3.20
2021,03,23,13,33,3.20
2021,03,23,13,34,4.80
2021,03,23,13,35,4.80
2021,03,23,13,36,3.20
2021,03,23,13,37,3.20
2021,03,23,13,38,3.20
2021,03,23,13,39,3.20
2021,03,23,13,40,3.20
2021,03,23,13,41,3.20
2021,03,23,13,42,3.20
2021,03,23,13,43,3.20
2021,03,23,13,44,4.80
2021,03,23,13,45,1.60
2021,03,23,13,46,3.20
2021,03,23,13,47,3.20
2021,03,23,13,48,3.20
2021,03,23,13,49,6.40
2021,03,23,13,50,4.80
2021,03,23,13,51,4.80
2021,03,23,13,52,3.20
2021,03,23,13,53,3.20
2021,03,23,13,54,1.60
2021,03,23,13,55,3.20
2021,03,23,13,56,4.80
2021,03,23,13,57,4.80
2021,03,23,13,58,4.80
2021,03,23,13,59,3.20
2021,03,23,14,00,1.60
2021,03,23,14,01,1.60
2021,03,23,14,02,1.60
2021,03,23,14,03,1.60
2021,03,23,14,04,4.80
2021,03,23,14,05,4.80
2021,03,23,14,06,4.80
2021,03,23,14,07,3.20
2021,03,23,14,08,4.80
2021,03,23,14,09,4.80
2021,03,23,14,10,3.20
2021,03,23,14,11,1.60
2021,03,23,14,12,1.60
2021,03,23,14,13,3.20
2021,03,23,14,14,4.80
2021,03,23,14,15,4.80
2021,03,23,14,16,3.20
2021,03,23,14,17,3.20
2021,03,23,14,18,3.20
2021,03,23,14,19,3.20
2021,03,23,14,20,3.20
2021,03,23,14,21,4.80
2021,03,23,14,22,3.20
2021,03,23,14,23,4.80
2021,03,23,14,24,3.20
2021,03,23,14,25,6.40
2021,03,23,14,26,3.20
2021,03,23,14,27,6.40
2021,03,23,14,28,4.80
2021,03,23,14,29,4.80
2021,03,23,14,30,3.20
2021,03,23,14,31,4.80
2021,03,23,14,32,4.80
2021,03,23,14,33,4.80
2021,03,23,14,34,4.80
2021,03,23,14,35,4.80
2021,03,23,14,36,4.80
2021,03,23,14,37,4.80
2021,03,23,14,38,3.20
2021,03,23,14,39,4.80
2021,03,23,14,40,4.80
2021,03,23,14,41,3.20
2021,03,23,14,42,3.20
2021,03,23,14,43,4.80
2021,03,23,14,44,3.20
2021,03,23,14,45,3.20
2021,03,23,14,46,3.20
2021,03,23,14,47,3.20
2021,03,23,14,48,4.80
2021,03,23,14,49,3.20
2021,03,23,14,50,4.80
2021,03,23,14,51,4.80
2021,03,23,14,52,4.80
2021,03,23,14,53,4.80
2021,03,23,14,54,4.80
2021,03,23,14,55,3.20
2021,03,23,14,56,4.80
2021,03,23,14,57,3.20
2021,03,23,14,58,4.80
2021,03,23,14,59,4.80
2021,03,23,15,00,4.80
2021,03,23,15,01,3.20
2021,03,23,15,02,4.80
2021,03,23,15,03,3.20
2021,03,23,15,04,4.80
2021,03,23,15,05,3.20
2021,03,23,15,06,3.20
2021,03,23,15,07,3.20
2021,03,23,15,08,3.20
2021,03,23,15,09,6.40
2021,03,23,15,10,4.80
2021,03,23,15,11,4.80
2021,03,23,15,12,3.20
2021,03,23,15,13,4.80
2021,03,23,15,14,3.20
2021,03,23,15,15,3.20
2021,03,23,15,16,3.20
2021,03,23,15,17,3.20
2021,03,23,15,18,3.20
2021,03,23,15,19,4.80
2021,03,23,15,20,3.20
2021,03,23,15,21,4.80
2021,03,23,15,22,3.20
2021,03,23,15,23,3.20
2021,03,23,15,24,6.40
2021,03,23,15,25,6.40
2021,03,23,15,26,4.80
2021,03,23,15,27,9.60
2021,03,23,15,28,3.20
2021,03,23,15,29,4.80
2021,03,23,15,30,6.40
2021,03,23,15,31,3.20
2021,03,23,15,32,4.80
2021,03,23,15,33,4.80
2021,03,23,15,34,4.80
2021,03,23,15,35,3.20
2021,03,23,15,36,4.80
2021,03,23,15,37,4.80
2021,03,23,15,38,6.40
2021,03,23,15,39,9.60
2021,03,23,15,40,4.80
2021,03,23,15,41,4.80
2021,03,23,15,42,3.20
2021,03,23,15,43,4.80
2021,03,23,15,44,4.80
2021,03,23,15,45,3.20
2021,03,23,15,46,4.80
2021,03,23,15,47,4.80
2021,03,23,15,48,4.80
2021,03,23,15,49,4.80
2021,03,23,15,50,3.20
2021,03,23,15,51,4.80
2021,03,23,15,52,4.80
2021,03,23,15,53,4.80
2021,03,23,15,54,6.40
2021,03,23,15,55,6.40
2021,03,23,15,56,4.80
2021,03,23,15,57,6.40
2021,03,23,15,58,4.80
2021,03,23,15,59,6.40
2021,03,23,16,00,4.80
2021,03,23,16,01,4.80
2021,03,23,16,02,4.80
2021,03,23,16,03,6.40
2021,03,23,16,04,3.20
2021,03,23,16,05,8.10
2021,03,23,16,06,4.80
2021,03,23,16,07,3.20
2021,03,23,16,08,4.80
2021,03,23,16,09,4.80
2021,03,23,16,10,4.80
2021,03,23,16,11,3.20
2021,03,23,16,12,4.80
2021,03,23,16,13,4.80
2021,03,23,16,14,3.20
2021,03,23,16,15,4.80
2021,03,23,16,16,4.80
2021,03,23,16,17,3.20
2021,03,23,16,18,4.80
2021,03,23,16,19,1.60
2021,03,23,16,20,6.40
2021,03,23,16,21,3.20
2021,03,23,16,22,4.80
2021,03,23,16,23,4.80
2021,03,23,16,24,3.20
2021,03,23,16,25,4.80
2021,03,23,16,26,3.20
2021,03,23,16,27,3.20
2021,03,23,16,28,1.60
2021,03,23,16,29,4.80
2021,03,23,16,30,4.80
2021,03,23,16,31,3.20
2021,03,23,16,32,3.20
2021,03,23,16,33,3.20
2021,03,23,16,34,3.20
2021,03,23,16,35,4.80
2021,03,23,16,36,3.20
2021,03,23,16,37,3.20
2021,03,23,16,38,3.20
2021,03,23,16,39,3.20
2021,03,23,16,40,3.20
2021,03,23,16,41,3.20
2021,03,23,16,42,3.20
2021,03,23,16,43,1.60
2021,03,23,16,44,3.20
2021,03,23,16,45,4.80
2021,03,23,16,46,4.80
2021,03,23,16,47,3.20
2021,03,23,16,48,3.20
2021,03,23,16,49,3.20
2021,03,23,16,50,1.60
2021,03,23,16,51,1.60
2021,03,23,16,52,1.60
2021,03,23,16,53,3.20
2021,03,23,16,54,1.60
2021,03,23,16,55,3.20
2021,03,23,16,56,3.20
2021,03,23,16,57,1.60
2021,03,23,16,58,1.60
2021,03,23,17,00,1.60
2021,03,23,17,06,1.60
2021,03,23,17,07,3.20
2021,03,23,17,08,3.20
2021,03,23,17,09,3.20
2021,03,23,17,10,3.20
2021,03,23,17,11,1.60
2021,03,23,17,12,3.20
2021,03,23,17,13,3.20
2021,03,23,17,14,3.20
2021,03,23,17,15,4.80
2021,03,23,17,16,3.20
2021,03,23,17,17,3.20
2021,03,23,17,18,3.20
2021,03,23,17,19,3.20
2021,03,23,17,20,4.80
2021,03,23,17,21,4.80
2021,03,23,17,22,3.20
2021,03,23,17,23,1.60
2021,03,23,17,24,1.60
2021,03,23,17,25,1.60
2021,03,23,17,26,3.20
2021,03,23,17,27,3.20
2021,03,23,17,28,3.20
2021,03,23,17,29,3.20
2021,03,23,17,30,1.60
2021,03,23,17,32,1.60
2021,03,23,17,33,3.20
2021,03,23,17,34,1.60
2021,03,23,17,35,1.60
2021,03,23,17,36,1.60
2021,03,23,17,37,1.60
2021,03,23,17,38,1.60
2021,03,23,17,39,1.60
2021,03,23,17,40,1.60
2021,03,23,17,41,1.60
2021,03,23,17,42,3.20
2021,03,23,17,43,3.20
2021,03,23,17,44,1.60
2021,03,23,17,45,3.20
2021,03,23,17,46,3.20
2021,03,23,17,47,3.20
2021,03,23,17,48,3.20
2021,03,23,17,49,3.20
2021,03,23,17,50,3.20
2021,03,23,17,51,3.20
2021,03,23,17,52,3.20
2021,03,23,17,53,3.20
2021,03,23,17,54,3.20
2021,03,23,17,55,3.20
2021,03,23,17,56,3.20
2021,03,23,17,57,4.80
2021,03,23,17,58,4.80
2021,03,23,17,59,3.20
2021,03,23,18,00,1.60
2021,03,23,18,01,1.60
2021,03,23,18,02,3.20
2021,03,23,18,03,3.20
2021,03,23,18,04,3.20
2021,03,23,18,05,1.60
2021,03,23,18,06,1.60
2021,03,23,18,07,3.20
2021,03,23,18,08,3.20
2021,03,23,18,09,3.20
2021,03,23,18,10,1.60
2021,03,23,18,12,1.60
2021,03,23,18,13,1.60
2021,03,23,18,14,1.60
2021,03,23,18,16,1.60
2021,03,23,18,17,1.60
2021,03,23,18,18,1.60
2021,03,23,18,19,1.60
2021,03,23,18,20,3.20
2021,03,23,18,21,1.60
2021,03,23,18,26,3.20
2021,03,23,18,27,1.60
2021,03,23,18,28,3.20
2021,03,23,18,29,1.60
2021,03,23,18,30,3.20
2021,03,23,18,31,3.20
2021,03,23,18,32,3.20
2021,03,23,18,33,1.60
2021,03,23,18,34,3.20
2021,03,23,18,35,3.20
2021,03,23,18,36,3.20
2021,03,23,18,37,3.20
2021,03,23,18,38,4.80
2021,03,23,18,39,3.20
2021,03,23,18,40,3.20
2021,03,23,18,41,4.80
2021,03,23,18,42,3.20
2021,03,23,18,43,3.20
2021,03,23,18,44,3.20
2021,03,23,18,45,3.20
2021,03,23,18,46,3.20
2021,03,23,18,47,4.80
2021,03,23,18,48,3.20
2021,03,23,18,49,3.20
2021,03,23,18,50,4.80
2021,03,23,18,51,3.20
2021,03,23,18,52,3.20
2021,03,23,18,53,3.20
2021,03,23,18,54,1.60
2021,03,23,18,55,3.20
2021,03,23,18,56,3.20
2021,03,23,18,57,3.20
2021,03,23,18,58,4.80
2021,03,23,18,59,4.80
2021,03,23,19,00,3.20
2021,03,23,19,01,3.20
2021,03,23,19,02,3.20
2021,03,23,19,03,3.20
2021,03,23,19,04,3.20
2021,03,23,19,05,3.20
2021,03,23,19,06,3.20
2021,03,23,19,07,3.20
2021,03,23,19,08,3.20
2021,03,23,19,09,1.60
2021,03,23,19,10,3.20
2021,03,23,19,11,4.80
2021,03,23,19,12,3.20
2021,03,23,19,13,3.20
2021,03,23,19,14,1.60
2021,03,23,19,15,3.20
2021,03,23,19,16,3.20
2021,03,23,19,17,3.20
2021,03,23,19,18,3.20
2021,03,23,19,19,3.20
2021,03,23,19,20,4.80
2021,03,23,19,21,4.80
2021,03,23,19,22,3.20
2021,03,23,19,23,3.20
2021,03,23,19,24,3.20
2021,03,23,19,25,1.60
2021,03,23,19,27,1.60
2021,03,23,19,28,1.60
2021,03,23,19,31,1.60
2021,03,23,19,36,1.60
2021,03,23,19,41,1.60
2021,03,23,19,42,1.60
2021,03,23,19,45,3.20
2021,03,23,21,09,1.60
2021,03,23,21,10,1.60
2021,03,23,21,22,1.60
2021,03,23,21,29,1.60
2021,03,23,21,31,1.60
2021,03,23,21,40,1.60
2021,03,23,21,47,1.60
2021,03,23,21,53,1.60
2021,03,23,21,55,1.60
2021,03,23,21,56,1.60
2021,03,23,22,02,1.60
2021,03,23,22,12,1.60
2021,03,23,22,13,1.60
2021,03,23,22,14,1.60
2021,03,23,22,15,1.60
2021,03,23,22,16,1.60
2021,03,23,22,56,1.60
2021,03,23,22,57,1.60
2021,03,23,22,58,1.60
2021,03,23,23,05,1.60
2021,03,23,23,07,1.60
2021,03,23,23,08,1.60
2021,03,23,23,09,1.60
2021,03,23,23,12,1.60
2021,03,23,23,15,1.60
2021,03,23,23,16,3.20
2021,03,23,23,17,3.20
2021,03,23,23,18,3.20
2021,03,23,23,19,3.20
2021,03,23,23,20,1.60
2021,03,23,23,21,1.60
2021,03,23,23,22,1.60
2021,03,23,23,27,1.60
2021,03,23,23,28,1.60
2021,03,23,23,30,1.60
2021,03,23,23,32,1.60
2021,03,23,23,33,1.60
2021,03,23,23,34,1.60
2021,03,23,23,35,1.60
2021,03,23,23,42,3.20
2021,03,23,23,43,3.20
2021,03,23,23,44,3.20
2021,03,23,23,45,1.60
2021,03,23,23,46,1.60
2021,03,23,23,47,3.20
2021,03,23,23,48,4.80
2021,03,23,23,49,4.80
2021,03,23,23,50,3.20
2021,03,23,23,51,1.60
2021,03,23,23,52,1.60
